BEIDOU IGSO-7 (C16)

Last updated on Jan. 24, 2021, 6:19 a.m. UTC

1 43539U 18057A   21023.90874491 -.00000073  00000-0  00000-0 0  9996
2 43539  55.0531 180.2560 0031142 211.8454 172.1481  1.00257416  9406
UTC
Height (km)
Latitude
Longitude
Inclination
Orbital Period
UTC large
Height (km)
Speed (km/s)
/
Latitude / Longitude
Inclination (degrees)
Orbital Period (minutes)
Azimuth
Elevation
Range (km)
Doppler Factor
iOS Compass Heading
iOS Angle

Next 30 passes for location: Hong Kong

Rise time Rise Azimuth (degrees) Set time Set Azimuth (degrees) Duration Max altitude (degrees)

No matching passes for this satellites